Temperature
9 8 8 8 8 8 8 8 8 8 8 8 8 8 8 8 8 8 8 8 8 9 9 9 8 8 8 8 8 8 8 8 8 8 8 8 8 9 9 9 9 9 10
8 8 8 8 8 8 7 7 8 7 7 7 7 7 7 7 7 8 8 8 8 8 8 8 8 8 7 7 7 7 7 7 7 7 7 7 7 7 8 8 8 8 8
8 8 8 8 8 7 7 7 7 7 7 7 7 7 7 7 7 7 8 8 8 8 8 8 8 7 7 7 7 7 7 7 7 7 7 7 7 7 7 7 7 7 7
8 8 8 8 8 7 7 7 7 7 7 7 6 6 7 7 7 7 8 8 8 8 8 8 8 7 7 7 6 6 6 6 6 6 6 6 6 6 6 7 7 7 7
8 8 8 8 7 7 7 7 7 6 6 6 6 6 7 7 7 8 8 8 8 8 8 8 8 7 7 7 6 6 6 6 6 6 6 6 6 6 6 6 6 7 7
8 8 8 8 7 7 7 7 7 6 6 6 6 6 6 7 7 8 8 8 8 8 7 7 7 7 7 7 6 6 6 6 5 5 5 5 5 5 6 6 6 6 6
8 8 8 8 7 7 7 7 6 6 6 6 5 6 7 7 8 7 7 7 7 7 6 6 6 6 6 6 6 6 5 5 5 5 5 5 5 5 5 5 6 6 6
8 8 8 7 7 7 7 7 6 6 6 6 5 4 4 5 6 6 6 6 6 6 6 6 5 5 5 5 5 5 5 5 4 4 4 4 4 4 4 4 5 5 6
8 8 8 7 7 7 7 6 6 6 6 6 5 4 3 3 3 4 5 5 5 5 5 5 5 5 5 5 5 5 5 4 4 3 3 3 4 4 4 4 4 4 5
8 8 8 7 7 7 7 6 6 6 5 5 5 5 4 3 2 2 3 4 4 4 4 4 4 5 4 4 4 4 4 3 3 3 3 3 3 3 3 3 4 4 4
8 8 7 7 7 7 6 6 6 6 5 5 5 4 4 3 3 2 1 2 3 3 3 3 3 4 4 3 3 3 3 3 2 2 2 2 3 3 3 3 3 3 3
8 7 7 7 7 6 6 6 6 5 5 5 4 4 3 3 3 2 1 1 1 2 2 2 3 3 3 2 2 2 1 1 1 1 1 1 2 2 2 2 3 3 3
8 7 7 7 6 6 6 6 5 5 5 4 4 4 3 3 2 1 1 0 -0 0 1 1 2 2 2 1 1 1 0 0 0 0 0 1 1 1 1 2 2 2 2
7 7 6 6 6 6 5 5 5 5 4 4 4 3 3 2 2 1 0 -0 -1 -1 -1 -1 0 0 0 -0 -0 -1 -1 -1 -1 -1 -1 -0 -0 -0 0 1 1 1 1
7 6 6 6 5 5 5 5 4 4 4 3 3 3 2 2 1 1 -0 -1 -2 -3 -2 -2 -2 -1 -1 -1 -1 -2 -2 -2 -2 -2 -2 -2 -1 -1 -1 -1 -0 0 0
6 6 5 5 5 5 4 4 4 4 3 3 3 2 2 1 1 0 -1 -1 -2 -3 -4 -3 -3 -3 -2 -2 -2 -2 -3 -3 -3 -2 -2 -2 -2 -2 -2 -1 -1 -1 -0
6 5 5 5 5 4 4 4 3 3 3 2 2 1 1 0 -0 -1 -1 -2 -2 -3 -4 -4 -4 -4 -4 -4 -3 -3 -3 -3 -3 -3 -3 -3 -3 -2 -2 -2 -2 -1 -1
5 5 4 4 4 4 3 3 3 2 2 1 1 0 0 -1 -1 -2 -2 -3 -3 -4 -4 -5 -4 -4 -4 -4 -4 -4 -3 -3 -3 -3 -3 -3 -3 -3 -3 -2 -2 -2 -2
5 4 4 4 3 3 3 2 2 1 1 0 -0 -1 -1 -2 -2 -3 -3 -4 -4 -4 -5 -5 -5 -5 -5 -4 -4 -4 -4 -4 -4 -3 -3 -3 -3 -3 -3 -3 -3 -2 -2
4 4 3 3 3 2 2 1 1 1 0 -0 -1 -1 -2 -3 -3 -4 -4 -4 -5 -5 -5 -5 -5 -5 -5 -5 -4 -4 -4 -4 -4 -4 -4 -3 -3 -3 -3 -3 -3 -3 -3
3 3 3 2 2 2 1 1 0 -0 -1 -1 -1 -2 -3 -3 -4 -4 -5 -5 -5 -5 -5 -5 -5 -5 -5 -5 -5 -5 -5 -5 -4 -4 -4 -3 -3 -3 -3 -3 -3 -3 -3
3 2 2 2 1 1 0 -0 -1 -1 -2 -2 -2 -3 -3 -4 -4 -5 -5 -5 -5 -5 -5 -5 -5 -5 -5 -5 -5 -5 -5 -5 -5 -5 -4 -4 -4 -4 -3 -3 -3 -3 -3
2 2 2 1 1 0 -0 -1 -1 -2 -2 -3 -3 -3 -4 -4 -5 -5 -5 -5 -5 -5 -5 -5 -5 -5 -5 -5 -5 -5 -5 -5 -5 -5 -5 -5 -4 -4 -4 -4 -3 -3 -3
2 1 1 0 0 -0 -1 -1 -2 -3 -3 -3 -4 -4 -5 -5 -5 -5 -6 -6 -5 -5 -5 -5 -5 -5 -5 -5 -5 -5 -5 -5 -5 -4 -4 -5 -4 -4 -4 -4 -4 -4 -4
1 1 0 -0 -1 -1 -1 -2 -3 -3 -4 -4 -4 -5 -5 -5 -6 -6 -6 -6 -6 -5 -5 -5 -5 -5 -5 -5 -5 -5 -5 -5 -5 -5 -5 -5 -5 -5 -4 -4 -4 -4 -3
0 0 -0 -1 -1 -1 -2 -2 -3 -4 -4 -5 -5 -5 -6 -6 -6 -6 -6 -6 -6 -6 -6 -6 -6 -5 -6 -5 -5 -6 -6 -6 -6 -5 -5 -5 -5 -5 -5 -4 -4 -4 -4
Wind_Speed
8 9 9 11 11 11 10 9 10 10 10 11 11 11 12 14 16 16 17 18 19 20 21 21 21 21 21 21 21 21 21 21 21 21 21 20 20 20 19 19 18 18 17
10 9 8 9 10 12 12 11 11 9 9 9 9 10 12 14 15 17 18 20 21 22 23 23 23 23 23 23 23 23 23 23 23 24 24 23 23 23 23 22 22 21 20
12 10 7 7 10 12 12 10 9 8 6 6 6 9 10 12 13 16 18 19 21 22 24 24 25 25 24 24 24 24 24 24 25 25 25 26 26 26 26 25 25 24 23
13 10 7 7 10 9 8 5 4 4 5 5 5 5 7 9 12 15 17 18 19 19 21 24 25 25 25 25 25 25 24 25 25 26 27 27 28 28 28 28 28 27 27
11 9 7 7 7 6 4 3 3 3 4 5 5 6 5 6 9 13 14 17 18 19 20 22 24 25 25 25 25 25 25 25 25 26 26 27 28 29 30 30 30 30 30
7 7 5 5 5 3 2 2 3 3 3 4 5 6 6 7 7 8 11 14 15 17 18 19 20 21 23 24 25 25 25 25 25 25 26 26 27 28 29 30 31 32 32
5 5 4 4 3 2 3 3 2 3 3 2 3 5 6 6 6 6 6 7 10 14 15 15 16 17 18 21 24 25 26 26 26 26 26 26 26 27 28 29 30 31 32
3 3 3 2 2 2 2 2 2 2 2 1 1 3 5 5 4 4 5 5 6 8 9 12 13 15 17 18 21 25 27 27 28 27 27 27 26 27 27 28 29 30 31
2 3 3 3 2 2 2 3 3 3 3 2 3 3 3 4 5 5 5 5 5 5 6 10 13 16 18 18 20 22 25 27 28 28 28 28 28 27 27 27 28 29 30
1 2 2 2 2 1 2 3 3 3 3 4 3 4 6 5 5 5 4 5 7 7 8 8 11 16 19 19 20 23 26 27 28 29 30 30 29 29 28 28 28 28 28
1 0 1 1 1 1 2 3 3 3 3 4 4 4 4 4 6 7 10 6 5 6 7 8 10 14 18 19 20 22 26 27 28 29 29 29 30 30 30 29 28 27 27
1 1 0 1 2 2 3 4 4 5 5 5 5 5 5 5 5 6 9 11 10 8 7 7 8 11 17 18 20 24 27 27 28 28 29 29 29 30 30 30 29 28 28
1 2 1 2 2 4 5 5 4 5 5 6 6 6 6 7 6 7 9 12 12 8 6 6 7 11 15 16 18 24 26 27 27 28 29 29 29 30 30 30 30 29 28
2 2 2 3 5 6 6 5 4 6 5 6 8 7 6 7 6 6 7 10 14 10 6 7 5 7 12 15 19 25 22 26 28 29 29 29 29 30 30 30 30 29 29
2 2 3 3 5 5 5 5 5 6 6 6 7 8 6 6 6 6 6 6 8 15 14 7 5 5 10 14 19 20 18 24 28 29 29 29 29 29 30 30 30 29 29
1 2 3 4 5 5 5 5 5 6 6 7 6 7 7 6 6 6 6 6 7 11 16 6 6 7 9 15 22 22 19 28 29 29 30 30 30 30 30 30 29 29 29
2 3 4 5 5 6 6 6 7 7 8 8 8 8 9 9 7 7 6 7 7 9 17 14 7 7 9 11 14 17 20 19 20 27 29 29 29 29 29 29 29 28 29
3 3 4 5 6 7 7 7 8 9 9 10 10 10 10 9 9 8 7 9 9 10 13 19 12 8 9 10 12 13 13 16 15 24 28 28 29 28 28 28 28 28 27
4 4 5 6 7 7 8 8 9 9 9 10 10 11 11 10 11 9 10 10 10 12 11 15 16 10 8 9 10 11 13 11 14 20 24 25 26 27 27 27 26 26 26
5 6 6 7 8 8 8 9 9 9 10 10 10 11 11 11 12 11 11 11 11 11 11 13 15 12 10 9 8 9 11 8 10 12 17 20 24 26 26 26 26 26 25
6 6 7 8 8 7 8 9 9 9 9 10 10 10 11 14 18 16 13 10 10 10 11 12 14 13 11 8 8 8 12 10 10 10 10 11 11 10 12 20 23 24 24
6 6 7 8 9 8 14 19 15 9 9 9 10 10 11 14 18 22 25 24 21 15 13 13 14 15 14 12 10 11 12 13 12 5 7 9 7 9 9 8 19 24 24
6 7 8 8 9 12 18 20 20 13 9 9 10 10 11 12 18 11 19 23 22 25 25 19 18 17 17 14 14 15 14 14 14 8 8 12 9 11 10 13 23 24 24
7 7 8 9 9 12 19 21 22 12 9 9 10 10 12 12 13 15 13 13 13 15 18 15 14 16 16 15 14 16 16 15 13 10 9 11 9 10 10 9 20 23 23
7 7 8 9 10 12 19 21 21 9 8 10 10 10 12 12 20 25 18 15 15 13 19 24 25 24 26 26 21 12 11 12 13 8 6 6 7 8 8 9 13 20 21
7 8 8 9 10 11 17 21 21 8 9 10 9 10 17 19 24 26 16 14 17 15 13 14 16 18 16 17 21 13 10 12 11 8 5 5 5 4 5 4 5 6 8
Wind_Direction
194 197 203 208 214 221 227 236 243 249 253 258 260 257 257 258 260 263 266 272 278 283 286 286 286 285 285 284 283 280 277 275 274 272 269 266 265 264 263 262 261 260 259
196 197 204 211 218 224 229 232 236 239 245 250 256 257 256 260 262 265 267 271 275 280 283 285 285 286 285 285 285 284 282 279 276 274 272 270 267 264 262 261 260 259 258
201 204 206 213 223 228 231 235 241 243 249 252 257 262 263 264 266 270 272 271 272 276 281 284 285 285 286 286 286 285 285 284 282 278 275 273 271 268 264 262 260 258 257
210 208 210 220 229 228 225 227 232 243 252 257 263 267 269 272 273 274 275 273 272 273 276 281 284 285 286 286 287 287 287 286 285 284 281 277 273 270 268 265 261 258 256
214 209 215 227 231 225 225 232 236 237 258 268 272 274 271 269 272 276 274 275 275 273 273 279 283 284 286 286 287 288 288 288 287 286 285 283 280 275 271 268 265 262 258
210 209 217 230 228 220 239 244 254 254 256 269 286 288 279 272 270 268 273 280 281 280 279 279 281 283 286 287 288 289 290 290 289 288 287 286 284 282 278 273 269 266 262
208 206 212 223 220 221 240 249 257 274 278 277 309 306 290 279 278 272 276 281 285 289 290 288 285 283 284 289 291 292 292 293 292 291 289 287 286 285 283 280 276 271 267
215 212 210 218 224 232 263 265 248 269 277 238 245 314 317 323 324 290 283 277 278 294 300 303 301 294 287 286 288 293 294 293 292 291 289 287 286 284 283 283 281 278 274
214 213 213 210 217 211 249 261 249 241 268 275 198 218 278 284 302 283 276 273 283 287 290 296 297 296 294 290 288 292 295 294 293 290 289 286 284 282 281 280 280 280 279
208 208 201 195 204 213 248 262 246 231 236 267 265 229 231 244 274 299 287 283 279 276 276 282 284 286 286 286 287 292 296 296 294 292 290 287 285 282 281 279 279 279 279
349 270 196 191 229 251 264 271 275 254 231 242 248 250 256 253 234 260 286 285 281 264 264 266 273 277 278 278 280 286 294 295 295 294 293 291 288 285 282 279 278 279 280
348 347 314 252 269 269 267 267 264 262 253 252 252 244 244 252 256 253 276 289 288 279 263 257 262 268 272 274 277 286 291 293 293 293 293 293 291 288 284 281 278 276 277
286 283 276 271 274 274 276 275 271 271 263 260 259 256 250 250 253 262 277 289 291 287 267 255 253 262 271 272 275 286 290 290 291 292 292 292 292 291 289 284 279 276 274
235 253 268 276 282 288 289 284 278 275 272 267 270 268 266 264 258 258 267 289 299 294 274 264 262 257 268 272 277 286 284 286 289 289 289 290 289 288 288 286 282 278 275
246 267 284 289 293 294 291 288 280 282 282 274 272 273 271 268 265 262 262 264 282 299 297 270 269 262 271 276 283 285 277 283 288 288 288 287 288 288 287 285 283 279 277
258 289 295 294 294 295 293 290 285 282 282 279 273 273 271 270 267 263 259 260 258 279 290 279 273 269 275 286 288 289 285 288 289 288 288 287 286 285 284 283 281 279 276
273 288 292 295 296 296 294 290 285 285 283 283 282 279 276 274 272 268 264 264 265 270 286 292 275 268 265 271 280 280 281 280 281 284 285 285 285 284 283 282 280 279 277
277 282 288 293 293 293 291 288 288 288 284 284 284 281 279 281 274 271 268 268 270 269 279 291 292 280 268 268 272 273 280 281 277 282 285 285 285 284 283 282 281 279 278
286 290 289 289 289 289 289 285 281 282 279 277 277 277 277 278 277 274 271 273 275 279 275 283 291 288 279 274 276 275 274 274 277 281 284 285 285 285 284 284 283 282 280
281 285 284 283 283 285 285 284 282 279 276 274 272 270 270 269 271 274 277 273 276 278 278 282 288 291 286 275 270 277 283 272 274 278 281 281 282 283 283 284 284 283 282
276 278 283 285 285 285 281 282 281 276 275 276 274 269 268 276 281 287 289 284 281 282 285 287 289 291 289 284 279 277 285 285 277 269 270 271 273 270 274 278 281 282 281
277 278 279 281 285 287 298 306 307 293 284 281 283 281 280 284 289 295 296 296 294 289 289 287 289 288 289 286 283 281 284 287 288 246 251 265 256 264 266 262 272 276 276
272 278 279 278 278 284 299 307 309 308 290 283 283 285 290 291 298 287 289 292 290 288 286 285 284 285 286 285 283 282 278 277 279 270 268 278 265 266 264 267 274 275 275
269 273 276 276 277 285 301 308 310 306 287 281 278 277 280 283 283 289 283 280 275 276 278 280 274 276 277 276 272 275 277 278 274 267 256 273 272 267 268 259 270 272 274
272 271 272 276 278 287 300 308 309 294 285 281 278 277 283 282 289 297 296 290 288 283 286 285 284 285 287 290 290 288 284 285 286 278 241 253 268 272 268 264 265 270 271
269 275 277 276 276 279 294 305 307 293 287 286 281 275 286 293 296 298 295 291 293 293 288 287 287 288 287 286 288 281 279 280 281 281 241 235 261 273 277 258 261 268 272
Height
1556 1556 1556 1557 1557 1557 1557 1557 1556 1556 1555 1554 1554 1553 1552 1552 1551 1550 1549 1549 1548 1547 1546 1545 1544 1544 1543 1542 1542 1541 1540 1539 1539 1538 1538 1537 1536 1536 1535 1535 1534 1534 1533
1554 1554 1555 1555 1555 1555 1555 1554 1554 1553 1552 1552 1551 1550 1549 1548 1547 1546 1545 1544 1543 1542 1541 1540 1539 1539 1538 1537 1536 1536 1535 1535 1534 1534 1533 1533 1532 1531 1531 1530 1530 1530 1529
1552 1553 1553 1553 1553 1553 1553 1552 1551 1551 1550 1549 1548 1547 1546 1544 1543 1542 1540 1539 1538 1537 1536 1535 1534 1533 1532 1531 1530 1530 1529 1529 1528 1528 1527 1527 1527 1526 1526 1526 1525 1525 1525
1550 1550 1551 1551 1551 1551 1550 1549 1549 1548 1547 1545 1544 1543 1541 1540 1538 1537 1535 1534 1533 1531 1530 1529 1528 1527 1526 1525 1524 1524 1523 1522 1521 1521 1521 1520 1520 1520 1520 1520 1520 1519 1519
1548 1548 1548 1548 1548 1548 1547 1546 1545 1544 1543 1541 1540 1538 1536 1535 1533 1532 1530 1529 1528 1526 1525 1524 1523 1522 1521 1520 1519 1518 1517 1516 1515 1514 1513 1513 1512 1512 1513 1513 1513 1513 1513
1546 1546 1546 1545 1545 1544 1544 1543 1542 1541 1539 1537 1535 1533 1531 1529 1528 1527 1526 1525 1524 1522 1521 1520 1519 1517 1516 1515 1513 1512 1511 1509 1508 1507 1506 1505 1504 1504 1504 1504 1505 1505 1505
1543 1543 1542 1542 1541 1541 1540 1539 1538 1536 1535 1534 1531 1527 1525 1524 1522 1521 1521 1520 1520 1518 1517 1515 1514 1512 1510 1509 1507 1506 1504 1503 1501 1500 1499 1498 1496 1496 1495 1495 1496 1496 1497
1540 1539 1539 1539 1538 1537 1536 1535 1534 1532 1531 1530 1528 1524 1519 1517 1516 1516 1516 1514 1514 1513 1512 1510 1508 1506 1504 1502 1500 1499 1497 1495 1494 1493 1492 1490 1489 1488 1487 1486 1486 1486 1487
1537 1536 1536 1535 1535 1534 1533 1532 1531 1529 1528 1527 1526 1525 1521 1515 1511 1508 1508 1508 1507 1507 1505 1504 1502 1500 1498 1495 1493 1491 1489 1487 1485 1484 1484 1483 1481 1480 1479 1478 1477 1477 1477
1534 1533 1533 1532 1532 1531 1530 1529 1527 1526 1524 1523 1522 1520 1519 1516 1511 1503 1501 1501 1501 1499 1498 1496 1494 1492 1490 1488 1485 1483 1481 1479 1477 1476 1475 1474 1473 1472 1471 1470 1469 1468 1468
1531 1531 1530 1530 1529 1528 1526 1525 1524 1522 1520 1519 1517 1515 1513 1511 1508 1503 1494 1491 1491 1491 1490 1488 1486 1484 1482 1479 1477 1475 1472 1470 1468 1467 1465 1464 1464 1463 1462 1462 1461 1460 1459
1529 1528 1527 1527 1526 1524 1523 1521 1520 1518 1516 1514 1512 1510 1508 1505 1502 1498 1491 1485 1481 1480 1480 1479 1477 1475 1473 1471 1468 1466 1464 1461 1459 1457 1456 1455 1453 1453 1452 1452 1451 1451 1450
1526 1525 1525 1523 1522 1521 1519 1517 1515 1513 1511 1509 1506 1504 1502 1499 1496 1492 1487 1479 1473 1470 1469 1468 1468 1466 1464 1462 1459 1457 1454 1452 1450 1448 1446 1444 1443 1442 1441 1441 1441 1441 1440
1523 1522 1521 1520 1518 1517 1515 1512 1510 1508 1505 1503 1500 1497 1495 1492 1489 1486 1482 1475 1465 1459 1459 1458 1458 1457 1455 1452 1450 1447 1444 1442 1440 1438 1436 1434 1433 1432 1431 1430 1430 1430 1430
1519 1518 1517 1516 1514 1512 1510 1507 1504 1502 1499 1496 1493 1490 1487 1484 1481 1478 1475 1471 1465 1453 1446 1448 1448 1447 1445 1442 1440 1436 1434 1432 1430 1428 1426 1424 1422 1421 1420 1419 1419 1419 1419
1516 1514 1513 1511 1509 1507 1504 1501 1498 1495 1492 1489 1486 1482 1479 1476 1473 1470 1467 1464 1459 1452 1440 1436 1438 1437 1435 1433 1430 1427 1424 1421 1419 1417 1415 1413 1412 1410 1409 1409 1408 1408 1409
1512 1510 1508 1506 1504 1501 1498 1495 1492 1488 1485 1482 1479 1475 1472 1469 1465 1462 1458 1454 1451 1445 1435 1426 1428 1426 1425 1422 1420 1417 1414 1411 1409 1407 1405 1403 1401 1400 1399 1398 1398 1398 1398
1508 1506 1503 1501 1498 1495 1492 1489 1485 1482 1478 1474 1471 1467 1464 1460 1457 1453 1449 1445 1441 1437 1430 1420 1417 1417 1415 1413 1410 1408 1405 1402 1400 1397 1395 1393 1392 1390 1389 1388 1388 1387 1387
1503 1501 1498 1495 1492 1489 1486 1482 1478 1475 1471 1467 1464 1460 1456 1452 1448 1444 1440 1436 1432 1428 1424 1417 1410 1409 1406 1405 1402 1399 1397 1394 1391 1389 1386 1384 1382 1381 1380 1379 1378 1378 1377
1498 1495 1493 1490 1486 1483 1479 1475 1471 1467 1463 1460 1456 1452 1448 1444 1440 1436 1432 1428 1424 1420 1416 1411 1405 1401 1398 1397 1394 1391 1387 1385 1383 1381 1378 1376 1374 1372 1371 1370 1369 1368 1367
1492 1490 1487 1484 1480 1477 1472 1468 1464 1459 1455 1451 1448 1444 1440 1436 1432 1429 1425 1421 1417 1413 1409 1404 1399 1394 1391 1389 1387 1384 1380 1376 1373 1372 1369 1366 1365 1363 1362 1361 1360 1359 1358
1487 1484 1481 1477 1474 1470 1466 1462 1457 1452 1448 1444 1439 1436 1432 1428 1424 1420 1417 1414 1411 1407 1402 1398 1392 1388 1384 1382 1379 1376 1373 1369 1364 1363 1361 1358 1357 1354 1353 1352 1351 1350 1349
1480 1477 1474 1470 1466 1463 1459 1454 1450 1446 1441 1436 1432 1427 1423 1420 1416 1412 1407 1404 1401 1398 1395 1392 1385 1381 1377 1375 1372 1368 1365 1361 1357 1355 1354 1349 1348 1345 1344 1343 1342 1341 1340
1474 1470 1467 1463 1459 1456 1452 1447 1442 1437 1433 1428 1424 1420 1415 1410 1407 1403 1398 1394 1391 1388 1386 1382 1378 1373 1370 1367 1364 1360 1356 1352 1349 1347 1346 1342 1339 1338 1336 1335 1334 1333 1332
1466 1463 1460 1456 1452 1448 1444 1439 1435 1429 1424 1420 1416 1412 1408 1403 1399 1396 1392 1386 1382 1378 1376 1373 1369 1365 1362 1359 1356 1352 1348 1345 1341 1339 1338 1335 1332 1330 1328 1326 1326 1325 1325
1459 1455 1452 1449 1444 1440 1436 1432 1427 1421 1416 1411 1407 1403 1400 1396 1391 1388 1384 1379 1373 1369 1366 1361 1358 1355 1352 1349 1347 1344 1341 1338 1334 1331 1330 1329 1326 1325 1321 1319 1319 1319 1319